Погода в Слабневе

Россия / Ивановская область     56°40′52″N   41°14′06″E
темп.,
°C
ветер,
м/с
пор.,
м/с
влажн.,
%
обл.,
%
осадки,
мм/ч
давл.,
гПа
погр.,
м
24 июля, сб
сб2400:00+11сз38835 0.0 1007180
03:00+9сз2696100 0.0 1008125
06:00+12ссз2585100 0.0 1009234
09:00+14ссз347696 0.0 1011468
12:00+18с345568 0.8 10121654
15:00+19ссз2439100 0.9 10122127
18:00+17св254972 0.0 1014295
21:00+14ююв126078 0.0 101620
25 июля, вс
вс2500:00+10з22725 0.0 101815
03:00+9зсз22736 0.0 101923
06:00+12з13684 0.0 102086
09:00+19зюз244135 0.0 1020777
12:00+22зсз343073 0.0 10202687
15:00+23з432858 0.0 10202741
18:00+21з46398 0.0 1021924
21:00+15зюз236057 0.0 102249
26 июля, пн
пн2600:00+13зюз22687 0.0 102319
03:00+15ююз2462100 0.0 102384
06:00+15юз2566100 0.0 1023163
09:00+19з245136 0.0 1023422
12:00+24з463699 0.0 10232442
15:00+25зсз353294 0.0 10222615
18:00+20зсз235215 0.0 102257
21:00+19зюз235811 0.0 102156
27 июля, вт
вт2700:00+16з38685 0.0 1022144
03:00+14з28755 0.0 1022142
06:00+16зсз26735 0.0 1022154
09:00+23ссз23489 0.1 1022599
12:00+24сз13475 0.0 1021587
15:00+24з245197 0.0 101987
18:00+23зюз135790 0.0 1019231
21:00+18вюв358218 0.3 1020113
28 июля, ср
ср2800:00+15ююз23925 0.1 102054
03:00+15з23875 0.1 101946
06:00+17юз24805 0.0 1018113
09:00+25зюз35505 0.0 1017688
12:00+28зюз463615 0.0 10152573
15:00+26з374479 0.0 1013576
18:00+26зюз374847 0.0 1012835
21:00+20зюз366114 0.0 1011108